Time,TemperatureF,DewpointF,PressureIn,WindDirection,WindDirectionDegrees,WindSpeedMPH,WindSpeedGustMPH,Humidity,HourlyPrecipIn,Conditions,Clouds,dailyrainin,SolarRadiationWatts/m^2,SoftwareType,DateUTC
2013-03-07 00:02:00,30.0,27.0,-100.00,North,6,7.0,15.0,88,0.00,,,0.00,0.000000,,2013-03-07 05:02:00,
2013-03-07 00:32:00,29.0,25.0,-100.00,North,11,5.0,16.0,86,0.00,,,0.00,0.000000,,2013-03-07 05:32:00,
2013-03-07 00:42:00,29.0,25.0,-100.00,North,11,5.0,16.0,86,0.00,,,0.00,0.000000,,2013-03-07 05:42:00,
2013-03-07 00:52:00,29.0,25.0,-100.00,North,11,5.0,16.0,86,0.00,,,0.00,0.000000,,2013-03-07 05:52:00,
2013-03-07 01:02:00,29.0,25.0,-100.00,North,11,5.0,16.0,86,0.00,,,0.00,0.000000,,2013-03-07 06:02:00,
2013-03-07 01:32:00,29.0,26.0,-100.00,NNE,18,6.0,11.0,89,0.00,,,0.00,0.000000,,2013-03-07 06:32:00,
2013-03-07 01:42:00,29.0,26.0,-100.00,NNE,18,6.0,11.0,89,0.00,,,0.00,0.000000,,2013-03-07 06:42:00,
2013-03-07 01:52:00,29.0,26.0,-100.00,NNE,18,6.0,11.0,89,0.00,,,0.00,0.000000,,2013-03-07 06:52:00,
2013-03-07 02:01:00,29.0,26.0,-100.00,NNE,18,6.0,11.0,89,0.00,,,0.00,0.000000,,2013-03-07 07:01:00,
2013-03-07 02:32:00,29.0,26.0,-100.00,North,7,6.0,11.0,90,0.00,,,0.00,0.000000,,2013-03-07 07:32:00,
2013-03-07 02:43:00,29.0,26.0,-100.00,North,7,6.0,11.0,90,0.00,,,0.00,0.000000,,2013-03-07 07:43:00,
2013-03-07 02:53:00,29.0,26.0,-100.00,North,7,6.0,11.0,90,0.00,,,0.00,0.000000,,2013-03-07 07:53:00,
2013-03-07 03:03:00,29.0,26.0,-100.00,North,7,6.0,11.0,90,0.00,,,0.00,0.000000,,2013-03-07 08:03:00,
2013-03-07 03:34:00,29.0,27.0,-100.00,NNE,21,4.0,9.0,92,0.00,,,0.00,0.000000,,2013-03-07 08:34:00,
2013-03-07 03:45:00,29.0,27.0,-100.00,NNE,21,4.0,9.0,92,0.00,,,0.00,0.000000,,2013-03-07 08:45:00,
2013-03-07 03:54:00,29.0,27.0,-100.00,NNE,21,4.0,9.0,92,0.00,,,0.00,0.000000,,2013-03-07 08:54:00,
2013-03-07 04:03:00,29.0,27.0,-100.00,NNE,21,4.0,9.0,92,0.00,,,0.00,0.000000,,2013-03-07 09:03:00,
2013-03-07 04:33:00,29.0,27.0,-100.00,NNE,17,4.0,9.0,92,0.00,,,0.00,0.000000,,2013-03-07 09:33:00,
2013-03-07 04:43:00,29.0,27.0,-100.00,NNE,17,4.0,9.0,92,0.00,,,0.00,0.000000,,2013-03-07 09:43:00,
2013-03-07 04:54:00,29.0,27.0,-100.00,NNE,17,4.0,9.0,92,0.00,,,0.00,0.000000,,2013-03-07 09:54:00,
2013-03-07 05:04:00,29.0,27.0,-100.00,NNE,17,4.0,9.0,92,0.00,,,0.00,0.000000,,2013-03-07 10:04:00,
2013-03-07 05:33:00,29.0,27.0,-100.00,NNE,23,6.0,12.0,93,0.00,,,0.00,0.000000,,2013-03-07 10:33:00,
2013-03-07 05:43:00,29.0,27.0,-100.00,NNE,23,6.0,12.0,93,0.00,,,0.00,0.000000,,2013-03-07 10:43:00,
2013-03-07 05:53:00,29.0,27.0,-100.00,NNE,23,6.0,12.0,93,0.00,,,0.00,0.000000,,2013-03-07 10:53:00,
2013-03-07 06:03:00,29.0,27.0,-100.00,NNE,23,6.0,12.0,93,0.00,,,0.00,0.000000,,2013-03-07 11:03:00,
2013-03-07 06:44:00,29.0,27.0,-100.00,NNE,16,6.0,12.0,93,0.00,,,0.00,0.000000,,2013-03-07 11:44:00,
2013-03-07 06:55:00,29.0,27.0,-100.00,NNE,16,6.0,12.0,93,0.00,,,0.00,0.000000,,2013-03-07 11:55:00,
2013-03-07 07:04:00,29.0,27.0,-100.00,NNE,16,6.0,12.0,93,0.00,,,0.00,0.000000,,2013-03-07 12:04:00,
2013-03-07 07:34:00,29.0,27.0,-100.00,NNE,25,5.0,10.0,94,0.00,,,0.00,0.000000,,2013-03-07 12:34:00,
2013-03-07 07:43:00,29.0,27.0,-100.00,NNE,25,5.0,10.0,94,0.00,,,0.00,0.000000,,2013-03-07 12:43:00,
2013-03-07 07:53:00,29.0,27.0,-100.00,NNE,25,5.0,10.0,94,0.00,,,0.00,0.000000,,2013-03-07 12:53:00,
2013-03-07 08:03:00,29.0,27.0,-100.00,NNE,25,5.0,10.0,94,0.00,,,0.00,0.000000,,2013-03-07 13:03:00,
2013-03-07 09:34:00,30.0,27.0,-100.00,NNE,21,5.0,9.0,89,-99.99,,,0.00,92.000000,,2013-03-07 14:34:00,
2013-03-07 09:43:00,30.0,27.0,-100.00,NNE,21,5.0,9.0,89,-99.99,,,0.00,92.000000,,2013-03-07 14:43:00,
2013-03-07 09:54:00,30.0,27.0,-100.00,NNE,21,5.0,9.0,89,-99.99,,,0.00,92.000000,,2013-03-07 14:54:00,
2013-03-07 10:03:00,30.0,27.0,-100.00,NNE,21,5.0,9.0,89,-99.99,,,0.00,92.000000,,2013-03-07 15:03:00,
2013-03-07 10:33:00,32.0,27.0,-100.00,NNE,14,6.0,12.0,81,0.00,,,0.00,166.000000,,2013-03-07 15:33:00,
2013-03-07 10:43:00,32.0,27.0,-100.00,NNE,14,6.0,12.0,81,0.00,,,0.00,166.000000,,2013-03-07 15:43:00,
2013-03-07 10:53:00,32.0,27.0,-100.00,NNE,14,6.0,12.0,81,0.00,,,0.00,166.000000,,2013-03-07 15:53:00,
2013-03-07 11:02:00,32.0,27.0,-100.00,NNE,14,6.0,12.0,81,0.00,,,0.00,166.000000,,2013-03-07 16:02:00,
2013-03-07 11:33:00,35.0,27.0,-100.00,NNE,25,8.0,13.0,72,0.00,,,0.00,456.000000,,2013-03-07 16:33:00,
2013-03-07 11:43:00,35.0,27.0,-100.00,NNE,25,8.0,13.0,72,0.00,,,0.00,456.000000,,2013-03-07 16:43:00,
2013-03-07 11:53:00,35.0,27.0,-100.00,NNE,25,8.0,13.0,72,0.00,,,0.00,456.000000,,2013-03-07 16:53:00,
2013-03-07 12:03:00,35.0,27.0,-100.00,NNE,25,8.0,13.0,72,0.00,,,0.00,456.000000,,2013-03-07 17:03:00,
2013-03-07 12:34:00,38.0,28.0,-100.00,North,1,8.0,14.0,67,0.00,,,0.00,867.000000,,2013-03-07 17:34:00,
2013-03-07 12:44:00,38.0,28.0,-100.00,North,1,8.0,14.0,67,0.00,,,0.00,867.000000,,2013-03-07 17:44:00,
2013-03-07 12:55:00,38.0,28.0,-100.00,North,1,8.0,14.0,67,0.00,,,0.00,867.000000,,2013-03-07 17:55:00,
2013-03-07 13:04:00,38.0,28.0,-100.00,North,1,8.0,14.0,67,0.00,,,0.00,867.000000,,2013-03-07 18:04:00,
2013-03-07 13:33:00,39.0,28.0,-100.00,NNW,340,8.0,16.0,65,0.00,,,0.00,880.000000,,2013-03-07 18:33:00,
2013-03-07 13:43:00,39.0,28.0,-100.00,NNW,340,8.0,16.0,65,0.00,,,0.00,880.000000,,2013-03-07 18:43:00,
2013-03-07 13:53:00,39.0,28.0,-100.00,NNW,340,8.0,16.0,65,0.00,,,0.00,880.000000,,2013-03-07 18:53:00,
2013-03-07 14:03:00,39.0,28.0,-100.00,NNW,340,8.0,16.0,65,0.00,,,0.00,880.000000,,2013-03-07 19:03:00,
2013-03-07 14:35:00,40.0,28.0,-100.00,North,355,7.0,15.0,62,0.00,,,0.00,887.000000,,2013-03-07 19:35:00,
2013-03-07 14:44:00,40.0,28.0,-100.00,North,355,7.0,15.0,62,0.00,,,0.00,887.000000,,2013-03-07 19:44:00,
2013-03-07 14:53:00,40.0,28.0,-100.00,North,355,7.0,15.0,62,0.00,,,0.00,887.000000,,2013-03-07 19:53:00,
2013-03-07 15:02:00,40.0,28.0,-100.00,North,355,7.0,15.0,62,0.00,,,0.00,887.000000,,2013-03-07 20:02:00,
2013-03-07 15:34:00,40.0,28.0,-100.00,North,9,8.0,15.0,62,0.00,,,0.00,770.000000,,2013-03-07 20:34:00,
2013-03-07 15:43:00,40.0,28.0,-100.00,North,9,8.0,15.0,62,0.00,,,0.00,770.000000,,2013-03-07 20:43:00,
2013-03-07 15:54:00,40.0,28.0,-100.00,North,9,8.0,15.0,62,0.00,,,0.00,770.000000,,2013-03-07 20:54:00,
2013-03-07 16:03:00,40.0,28.0,-100.00,North,9,8.0,15.0,62,0.00,,,0.00,770.000000,,2013-03-07 21:03:00,
2013-03-07 16:33:00,40.0,28.0,-100.00,North,358,8.0,15.0,61,0.00,,,0.00,593.000000,,2013-03-07 21:33:00,
2013-03-07 16:43:00,40.0,28.0,-100.00,North,358,8.0,15.0,61,0.00,,,0.00,593.000000,,2013-03-07 21:43:00,
2013-03-07 16:53:00,40.0,28.0,-100.00,North,358,8.0,15.0,61,0.00,,,0.00,593.000000,,2013-03-07 21:53:00,
2013-03-07 17:02:00,40.0,28.0,-100.00,North,358,8.0,15.0,61,0.00,,,0.00,593.000000,,2013-03-07 22:02:00,
2013-03-07 17:33:00,40.0,27.0,-100.00,NNE,19,7.0,16.0,60,0.00,,,0.00,387.000000,,2013-03-07 22:33:00,
2013-03-07 17:43:00,40.0,27.0,-100.00,NNE,19,7.0,16.0,60,0.00,,,0.00,387.000000,,2013-03-07 22:43:00,
2013-03-07 17:55:00,40.0,27.0,-100.00,NNE,19,7.0,16.0,60,0.00,,,0.00,387.000000,,2013-03-07 22:55:00,
2013-03-07 18:03:00,40.0,27.0,-100.00,NNE,19,7.0,16.0,60,0.00,,,0.00,387.000000,,2013-03-07 23:03:00,
2013-03-07 18:35:00,37.0,26.0,-100.00,NNE,23,6.0,14.0,64,0.00,,,0.00,167.000000,,2013-03-07 23:35:00,
2013-03-07 18:44:00,37.0,26.0,-100.00,NNE,23,6.0,14.0,64,0.00,,,0.00,167.000000,,2013-03-07 23:44:00,
2013-03-07 18:54:00,37.0,26.0,-100.00,NNE,23,6.0,14.0,64,0.00,,,0.00,167.000000,,2013-03-07 23:54:00,
2013-03-07 19:04:00,37.0,26.0,-100.00,NNE,23,6.0,14.0,64,0.00,,,0.00,167.000000,,2013-03-08 00:04:00,
2013-03-07 19:35:00,33.0,26.0,-100.00,NNE,16,5.0,12.0,74,0.00,,,0.00,15.000000,,2013-03-08 00:35:00,
2013-03-07 19:44:00,33.0,26.0,-100.00,NNE,16,5.0,12.0,74,0.00,,,0.00,15.000000,,2013-03-08 00:44:00,
2013-03-07 19:54:00,33.0,26.0,-100.00,NNE,16,5.0,12.0,74,0.00,,,0.00,15.000000,,2013-03-08 00:54:00,
2013-03-07 20:02:00,33.0,26.0,-100.00,NNE,16,5.0,12.0,74,0.00,,,0.00,15.000000,,2013-03-08 01:02:00,
2013-03-07 20:33:00,31.0,25.0,-100.00,North,10,7.0,11.0,79,0.00,,,0.00,0.000000,,2013-03-08 01:33:00,
2013-03-07 20:42:00,31.0,25.0,-100.00,North,10,7.0,11.0,79,0.00,,,0.00,0.000000,,2013-03-08 01:42:00,
2013-03-07 20:52:00,31.0,25.0,-100.00,North,10,7.0,11.0,79,0.00,,,0.00,0.000000,,2013-03-08 01:52:00,
2013-03-07 21:02:00,31.0,25.0,-100.00,North,10,7.0,11.0,79,0.00,,,0.00,0.000000,,2013-03-08 02:02:00,
2013-03-07 21:32:00,30.0,25.0,-100.00,NNE,17,7.0,12.0,82,0.00,,,0.00,0.000000,,2013-03-08 02:32:00,
2013-03-07 21:42:00,30.0,25.0,-100.00,NNE,17,7.0,12.0,82,0.00,,,0.00,0.000000,,2013-03-08 02:42:00,
2013-03-07 21:53:00,30.0,25.0,-100.00,NNE,17,7.0,12.0,82,0.00,,,0.00,0.000000,,2013-03-08 02:53:00,
2013-03-07 22:02:00,30.0,25.0,-100.00,NNE,17,7.0,12.0,82,0.00,,,0.00,0.000000,,2013-03-08 03:02:00,
2013-03-07 22:33:00,29.0,25.0,-100.00,NNE,16,5.0,12.0,83,0.00,,,0.00,0.000000,,2013-03-08 03:33:00,
2013-03-07 22:43:00,29.0,25.0,-100.00,NNE,16,5.0,12.0,83,0.00,,,0.00,0.000000,,2013-03-08 03:43:00,
2013-03-07 22:53:00,29.0,25.0,-100.00,NNE,16,5.0,12.0,83,0.00,,,0.00,0.000000,,2013-03-08 03:53:00,
2013-03-07 23:02:00,29.0,25.0,-100.00,NNE,16,5.0,12.0,83,0.00,,,0.00,0.000000,,2013-03-08 04:02:00,
2013-03-07 23:32:00,29.0,25.0,-100.00,NNE,21,6.0,12.0,86,0.00,,,0.00,0.000000,,2013-03-08 04:32:00,
2013-03-07 23:42:00,29.0,25.0,-100.00,NNE,21,6.0,12.0,86,0.00,,,0.00,0.000000,,2013-03-08 04:42:00,
2013-03-07 23:52:00,29.0,25.0,-100.00,NNE,21,6.0,12.0,86,0.00,,,0.00,0.000000,,2013-03-08 04:52:00,